Time,TemperatureF,DewpointF,PressureIn,WindDirection,WindDirectionDegrees,WindSpeedMPH,WindSpeedGustMPH,Humidity,HourlyPrecipIn,Conditions,Clouds,dailyrainin,SoftwareType,DateUTC
2013-08-28 00:00:00,77.2,69.8,29.87,ESE,114,0.0,0.0,78,0.00,,,0.03,meteohub,2013-08-28 04:00:00,
2013-08-28 00:01:00,77.2,69.8,29.87,ESE,114,0.0,0.0,78,0.00,,,0.03,meteohub,2013-08-28 04:01:00,
2013-08-28 00:02:00,77.2,69.8,29.87,ESE,114,0.0,0.0,78,0.00,,,0.03,meteohub,2013-08-28 04:02:00,
2013-08-28 00:04:00,77.2,69.8,29.87,ESE,115,0.0,0.0,78,0.00,,,0.03,meteohub,2013-08-28 04:04:00,
2013-08-28 00:09:00,77.2,69.8,29.87,ESE,115,0.0,0.0,78,0.00,,,0.03,meteohub,2013-08-28 04:09:00,
2013-08-28 00:14:00,76.8,69.4,29.87,ESE,114,0.0,0.0,78,0.00,,,0.00,meteohub,2013-08-28 04:14:00,
2013-08-28 00:15:00,76.8,69.4,29.87,ESE,114,0.0,0.0,78,0.00,,,0.00,meteohub,2013-08-28 04:15:00,
2013-08-28 00:20:00,76.6,69.3,29.87,ESE,114,0.0,0.0,78,0.00,,,0.00,meteohub,2013-08-28 04:20:00,
2013-08-28 00:26:00,76.6,69.6,29.87,ESE,115,0.0,0.0,79,0.00,,,0.00,meteohub,2013-08-28 04:26:00,
2013-08-28 00:31:00,76.6,69.6,29.87,ESE,114,0.0,0.0,79,0.00,,,0.00,meteohub,2013-08-28 04:31:00,
2013-08-28 00:36:00,76.5,69.4,29.87,ESE,115,0.0,0.0,79,0.00,,,0.00,meteohub,2013-08-28 04:36:00,
2013-08-28 00:42:00,76.3,69.6,29.87,ESE,115,0.0,0.0,80,0.00,,,0.00,meteohub,2013-08-28 04:42:00,
2013-08-28 00:47:00,76.3,69.6,29.87,ESE,114,0.0,0.0,80,0.00,,,0.00,meteohub,2013-08-28 04:47:00,
2013-08-28 00:52:00,76.3,69.6,29.87,ESE,115,0.0,0.0,80,0.00,,,0.00,meteohub,2013-08-28 04:52:00,
2013-08-28 00:57:00,76.1,69.8,29.87,ESE,115,0.0,0.0,81,0.00,,,0.00,meteohub,2013-08-28 04:57:00,
2013-08-28 01:02:00,75.9,69.6,29.87,ESE,114,0.0,0.0,81,0.00,,,0.00,meteohub,2013-08-28 05:02:00,
2013-08-28 01:07:00,75.9,70.0,29.87,ESE,114,0.0,0.0,82,0.00,,,0.00,meteohub,2013-08-28 05:07:00,
2013-08-28 01:12:00,75.9,70.0,29.87,ESE,114,0.0,0.0,82,0.00,,,0.00,meteohub,2013-08-28 05:12:00,
2013-08-28 01:17:00,75.7,69.8,29.86,ESE,114,0.0,0.0,82,0.00,,,0.00,meteohub,2013-08-28 05:17:00,
2013-08-28 01:22:00,75.7,69.8,29.86,ESE,114,0.0,0.0,82,0.00,,,0.00,meteohub,2013-08-28 05:22:00,
2013-08-28 01:27:00,75.6,70.0,29.86,ESE,114,0.0,0.0,83,0.00,,,0.00,meteohub,2013-08-28 05:27:00,
2013-08-28 01:32:00,75.6,70.0,29.86,ESE,114,0.0,0.0,83,0.00,,,0.00,meteohub,2013-08-28 05:32:00,
2013-08-28 01:38:00,75.4,69.8,29.86,ESE,114,0.0,0.0,83,0.00,,,0.00,meteohub,2013-08-28 05:38:00,
2013-08-28 01:43:00,75.4,69.8,29.86,ESE,115,0.0,0.0,83,0.00,,,0.00,meteohub,2013-08-28 05:43:00,
2013-08-28 01:48:00,75.4,69.8,29.86,ESE,115,0.0,0.0,83,0.00,,,0.00,meteohub,2013-08-28 05:48:00,
2013-08-28 01:53:00,75.4,69.8,29.85,ESE,115,0.0,0.0,83,0.00,,,0.00,meteohub,2013-08-28 05:53:00,
2013-08-28 01:58:00,75.2,69.6,29.85,ESE,114,0.0,0.0,83,0.00,,,0.00,meteohub,2013-08-28 05:58:00,
2013-08-28 02:03:00,75.2,69.6,29.85,ESE,114,0.0,0.0,83,0.00,,,0.00,meteohub,2013-08-28 06:03:00,
2013-08-28 02:09:00,75.2,69.6,29.84,ESE,114,0.0,0.0,83,0.00,,,0.00,meteohub,2013-08-28 06:09:00,
2013-08-28 02:14:00,75.2,69.6,29.84,ESE,115,0.0,0.0,83,0.00,,,0.00,meteohub,2013-08-28 06:14:00,
2013-08-28 02:19:00,75.0,69.4,29.84,ESE,114,0.0,0.0,83,0.00,,,0.00,meteohub,2013-08-28 06:19:00,
2013-08-28 02:25:00,74.8,69.3,29.84,ESE,114,0.0,0.0,83,0.00,,,0.00,meteohub,2013-08-28 06:25:00,
2013-08-28 02:30:00,74.8,69.3,29.84,ESE,114,0.0,0.0,83,0.00,,,0.00,meteohub,2013-08-28 06:30:00,
2013-08-28 02:35:00,74.8,69.6,29.84,ESE,114,0.0,0.0,84,0.00,,,0.00,meteohub,2013-08-28 06:35:00,
2013-08-28 02:40:00,74.7,69.4,29.84,ESE,115,0.0,0.0,84,0.00,,,0.00,meteohub,2013-08-28 06:40:00,
2013-08-28 02:45:00,74.7,69.4,29.84,ESE,114,0.0,0.0,84,0.00,,,0.00,meteohub,2013-08-28 06:45:00,
2013-08-28 02:51:00,74.5,69.3,29.84,ESE,114,0.0,0.0,84,0.00,,,0.00,meteohub,2013-08-28 06:51:00,
2013-08-28 02:56:00,74.5,69.3,29.84,ESE,115,0.0,0.0,84,0.00,,,0.00,meteohub,2013-08-28 06:56:00,
2013-08-28 03:01:00,74.5,69.3,29.84,ESE,114,0.0,0.0,84,0.00,,,0.00,meteohub,2013-08-28 07:01:00,
2013-08-28 03:06:00,74.3,69.1,29.84,ESE,114,0.0,0.0,84,0.00,,,0.00,meteohub,2013-08-28 07:06:00,
2013-08-28 03:12:00,74.1,68.9,29.84,ESE,114,0.0,0.0,84,0.00,,,0.00,meteohub,2013-08-28 07:12:00,
2013-08-28 03:17:00,74.1,68.9,29.83,ESE,115,0.0,0.0,84,0.00,,,0.00,meteohub,2013-08-28 07:17:00,
2013-08-28 03:22:00,74.1,68.9,29.83,ESE,114,0.0,0.0,84,0.00,,,0.00,meteohub,2013-08-28 07:22:00,
2013-08-28 03:27:00,74.1,68.9,29.83,ESE,115,0.0,0.0,84,0.00,,,0.00,meteohub,2013-08-28 07:27:00,
2013-08-28 03:32:00,74.1,68.9,29.83,ESE,114,0.0,0.0,84,0.00,,,0.00,meteohub,2013-08-28 07:32:00,
2013-08-28 03:37:00,74.1,68.9,29.83,ESE,114,0.0,0.0,84,0.00,,,0.00,meteohub,2013-08-28 07:37:00,
2013-08-28 03:42:00,74.1,68.5,29.83,ESE,114,0.0,0.0,83,0.00,,,0.00,meteohub,2013-08-28 07:42:00,
2013-08-28 03:47:00,74.1,68.5,29.83,ESE,114,0.0,0.0,83,0.00,,,0.00,meteohub,2013-08-28 07:47:00,
2013-08-28 03:52:00,74.1,68.5,29.83,ESE,114,0.0,0.0,83,0.00,,,0.00,meteohub,2013-08-28 07:52:00,
2013-08-28 03:57:00,73.9,68.4,29.83,ESE,114,0.0,0.0,83,0.00,,,0.00,meteohub,2013-08-28 07:57:00,
2013-08-28 04:02:00,73.9,68.7,29.83,ESE,115,0.0,0.0,84,0.00,,,0.00,meteohub,2013-08-28 08:02:00,
2013-08-28 04:07:00,73.9,68.4,29.83,ESE,114,0.0,0.0,83,0.00,,,0.00,meteohub,2013-08-28 08:07:00,
2013-08-28 04:12:00,73.8,68.5,29.83,ESE,114,0.0,0.0,84,0.00,,,0.00,meteohub,2013-08-28 08:12:00,
2013-08-28 04:17:00,73.8,68.5,29.83,ESE,115,0.0,0.0,84,0.00,,,0.00,meteohub,2013-08-28 08:17:00,
2013-08-28 04:22:00,73.6,68.4,29.83,ESE,114,0.0,0.0,84,0.00,,,0.00,meteohub,2013-08-28 08:22:00,
2013-08-28 04:27:00,73.4,68.2,29.83,ESE,114,0.0,0.0,84,0.00,,,0.00,meteohub,2013-08-28 08:27:00,
2013-08-28 04:32:00,73.2,68.4,29.83,ESE,114,0.0,0.0,85,0.00,,,0.00,meteohub,2013-08-28 08:32:00,
2013-08-28 04:37:00,73.2,68.4,29.83,ESE,114,0.0,0.0,85,0.00,,,0.00,meteohub,2013-08-28 08:37:00,
2013-08-28 04:42:00,73.0,68.2,29.83,ESE,114,0.0,0.0,85,0.00,,,0.00,meteohub,2013-08-28 08:42:00,
2013-08-28 04:47:00,73.0,68.2,29.83,ESE,115,0.0,0.0,85,0.00,,,0.00,meteohub,2013-08-28 08:47:00,
2013-08-28 04:52:00,73.0,68.2,29.83,ESE,114,0.0,0.0,85,0.00,,,0.00,meteohub,2013-08-28 08:52:00,
2013-08-28 04:57:00,73.0,68.2,29.83,ESE,115,0.0,0.0,85,0.00,,,0.00,meteohub,2013-08-28 08:57:00,
2013-08-28 05:02:00,73.0,68.5,29.83,ESE,114,0.0,0.0,86,0.00,,,0.00,meteohub,2013-08-28 09:02:00,
2013-08-28 05:07:00,73.0,68.5,29.83,ESE,115,0.0,0.0,86,0.00,,,0.00,meteohub,2013-08-28 09:07:00,
2013-08-28 05:12:00,73.0,68.5,29.83,ESE,114,0.0,0.0,86,0.00,,,0.00,meteohub,2013-08-28 09:12:00,
2013-08-28 05:17:00,72.9,68.4,29.83,ESE,115,0.0,0.0,86,0.00,,,0.00,meteohub,2013-08-28 09:17:00,
2013-08-28 05:23:00,72.9,68.4,29.83,ESE,114,0.0,0.0,86,0.00,,,0.00,meteohub,2013-08-28 09:23:00,
2013-08-28 05:28:00,72.9,68.4,29.83,ESE,115,0.0,0.0,86,0.00,,,0.00,meteohub,2013-08-28 09:28:00,
2013-08-28 05:33:00,72.9,68.4,29.83,ESE,115,0.0,0.0,86,0.00,,,0.00,meteohub,2013-08-28 09:33:00,
2013-08-28 05:35:00,73.0,68.5,29.83,ESE,114,0.0,0.0,86,0.00,,,0.00,meteohub,2013-08-28 09:35:00,
2013-08-28 05:40:00,73.0,68.5,29.83,ESE,114,0.0,0.0,86,0.00,,,0.00,meteohub,2013-08-28 09:40:00,
2013-08-28 05:45:00,73.0,68.5,29.83,ESE,115,0.0,0.0,86,0.00,,,0.00,meteohub,2013-08-28 09:45:00,
2013-08-28 05:50:00,73.0,68.5,29.84,ESE,115,0.0,0.0,86,0.00,,,0.00,meteohub,2013-08-28 09:50:00,
2013-08-28 05:56:00,73.0,68.5,29.84,ESE,114,0.0,0.0,86,0.00,,,0.00,meteohub,2013-08-28 09:56:00,
2013-08-28 06:01:00,73.0,68.5,29.84,ESE,114,0.0,0.0,86,0.00,,,0.00,meteohub,2013-08-28 10:01:00,
2013-08-28 06:06:00,73.0,68.5,29.84,ESE,115,0.0,0.0,86,0.00,,,0.00,meteohub,2013-08-28 10:06:00,
2013-08-28 06:11:00,73.0,68.9,29.84,ESE,114,0.0,0.0,87,0.00,,,0.00,meteohub,2013-08-28 10:11:00,
2013-08-28 06:17:00,72.9,68.7,29.84,ESE,115,0.0,0.0,87,0.00,,,0.00,meteohub,2013-08-28 10:17:00,
2013-08-28 06:22:00,72.7,68.5,29.85,ESE,114,0.0,0.0,87,0.00,,,0.00,meteohub,2013-08-28 10:22:00,
2013-08-28 06:27:00,72.7,68.9,29.85,ESE,115,0.0,0.0,88,0.00,,,0.00,meteohub,2013-08-28 10:27:00,
2013-08-28 06:32:00,72.7,68.9,29.85,ESE,114,0.0,0.0,88,0.00,,,0.00,meteohub,2013-08-28 10:32:00,
2013-08-28 06:37:00,72.7,68.9,29.85,ESE,114,0.0,0.0,88,0.00,,,0.00,meteohub,2013-08-28 10:37:00,
2013-08-28 06:42:00,72.7,68.9,29.85,ESE,115,0.0,0.0,88,0.00,,,0.00,meteohub,2013-08-28 10:42:00,
2013-08-28 06:47:00,72.9,69.1,29.85,ESE,115,0.0,0.0,88,0.00,,,0.00,meteohub,2013-08-28 10:47:00,
2013-08-28 06:52:00,72.9,69.1,29.85,ESE,115,0.0,0.0,88,0.00,,,0.00,meteohub,2013-08-28 10:52:00,
2013-08-28 06:57:00,72.9,69.1,29.86,ESE,114,0.0,0.0,88,0.00,,,0.00,meteohub,2013-08-28 10:57:00,
2013-08-28 07:02:00,72.9,69.1,29.86,ESE,115,0.0,0.0,88,0.00,,,0.00,meteohub,2013-08-28 11:02:00,
2013-08-28 07:07:00,73.0,69.3,29.86,ESE,114,0.0,0.0,88,0.00,,,0.00,meteohub,2013-08-28 11:07:00,
2013-08-28 07:12:00,73.2,69.4,29.86,ESE,115,0.0,0.0,88,0.00,,,0.00,meteohub,2013-08-28 11:12:00,
2013-08-28 07:17:00,73.6,69.8,29.86,ESE,114,0.0,0.0,88,0.00,,,0.00,meteohub,2013-08-28 11:17:00,
2013-08-28 07:22:00,73.8,70.0,29.86,ESE,114,0.0,0.0,88,0.00,,,0.00,meteohub,2013-08-28 11:22:00,
2013-08-28 07:28:00,74.1,70.0,29.85,ESE,114,0.0,0.0,87,0.00,,,0.00,meteohub,2013-08-28 11:28:00,
2013-08-28 07:33:00,74.5,70.3,29.85,ESE,114,0.0,0.0,87,0.00,,,0.00,meteohub,2013-08-28 11:33:00,
2013-08-28 07:38:00,74.8,70.3,29.85,ESE,114,0.0,0.0,86,0.00,,,0.00,meteohub,2013-08-28 11:38:00,
2013-08-28 07:43:00,75.0,70.2,29.85,ESE,114,0.0,0.0,85,0.00,,,0.00,meteohub,2013-08-28 11:43:00,
2013-08-28 07:49:00,75.2,70.0,29.85,ESE,115,0.0,0.0,84,0.00,,,0.00,meteohub,2013-08-28 11:49:00,
2013-08-28 07:54:00,75.6,70.3,29.86,ESE,116,0.0,0.0,84,0.00,,,0.00,meteohub,2013-08-28 11:54:00,
2013-08-28 07:59:00,75.9,70.3,29.85,ESE,115,0.0,0.0,83,0.00,,,0.00,meteohub,2013-08-28 11:59:00,
2013-08-28 08:04:00,76.1,70.5,29.85,ESE,115,0.0,0.0,83,0.00,,,0.00,meteohub,2013-08-28 12:04:00,
2013-08-28 08:10:00,76.6,71.1,29.85,ESE,114,0.0,0.0,83,0.00,,,0.00,meteohub,2013-08-28 12:10:00,
2013-08-28 08:15:00,76.8,71.2,29.85,ESE,114,0.0,0.0,83,0.00,,,0.00,meteohub,2013-08-28 12:15:00,
2013-08-28 08:20:00,77.2,71.2,29.86,ESE,116,0.0,0.0,82,0.00,,,0.00,meteohub,2013-08-28 12:20:00,
2013-08-28 08:25:00,77.4,70.7,29.85,ESE,113,0.0,0.0,80,0.00,,,0.00,meteohub,2013-08-28 12:25:00,
2013-08-28 08:31:00,77.7,71.1,29.85,ESE,112,0.0,0.0,80,0.00,,,0.00,meteohub,2013-08-28 12:31:00,
2013-08-28 08:36:00,78.3,71.2,29.85,ESE,111,0.0,0.0,79,0.00,,,0.00,meteohub,2013-08-28 12:36:00,
2013-08-28 08:41:00,78.8,71.1,29.85,East,97,0.0,0.0,77,0.00,,,0.00,meteohub,2013-08-28 12:41:00,
2013-08-28 08:46:00,79.0,71.1,29.85,SSE,160,0.0,0.0,77,0.00,,,0.00,meteohub,2013-08-28 12:46:00,
2013-08-28 08:52:00,79.3,71.4,29.85,SE,139,0.0,0.0,77,0.00,,,0.00,meteohub,2013-08-28 12:52:00,
2013-08-28 08:57:00,79.9,71.6,29.85,SE,139,0.0,0.0,76,0.00,,,0.00,meteohub,2013-08-28 12:57:00,
2013-08-28 09:02:00,80.1,71.8,29.85,ESE,108,0.0,0.0,76,0.00,,,0.00,meteohub,2013-08-28 13:02:00,
2013-08-28 09:07:00,80.4,71.8,29.85,ESE,120,0.0,0.0,75,0.00,,,0.00,meteohub,2013-08-28 13:07:00,
2013-08-28 09:12:00,80.8,71.8,29.85,SE,145,0.0,0.0,74,0.00,,,0.00,meteohub,2013-08-28 13:12:00,
2013-08-28 09:17:00,81.0,72.0,29.85,South,184,1.0,0.0,74,0.00,,,0.00,meteohub,2013-08-28 13:17:00,
2013-08-28 09:22:00,81.1,71.6,29.85,SSE,159,0.0,0.0,73,0.00,,,0.00,meteohub,2013-08-28 13:22:00,
2013-08-28 09:27:00,81.3,70.5,29.86,SSE,162,0.0,0.0,70,0.00,,,0.00,meteohub,2013-08-28 13:27:00,
2013-08-28 09:32:00,81.9,71.1,29.85,East,86,1.0,2.0,70,0.00,,,0.00,meteohub,2013-08-28 13:32:00,
2013-08-28 09:37:00,82.0,70.9,29.85,SSW,210,3.0,3.0,69,0.00,,,0.00,meteohub,2013-08-28 13:37:00,
2013-08-28 09:42:00,82.2,71.4,29.85,ESE,113,0.0,2.0,70,0.00,,,0.00,meteohub,2013-08-28 13:42:00,
2013-08-28 09:47:00,82.8,71.6,29.85,ESE,119,1.0,2.0,69,0.00,,,0.00,meteohub,2013-08-28 13:47:00,
2013-08-28 09:52:00,82.9,71.8,29.85,East,94,2.0,2.0,69,0.00,,,0.00,meteohub,2013-08-28 13:52:00,
2013-08-28 09:57:00,82.6,71.8,29.85,ESE,122,0.0,4.0,70,0.00,,,0.00,meteohub,2013-08-28 13:57:00,
2013-08-28 10:02:00,82.6,71.8,29.85,SSE,157,2.0,4.0,70,0.00,,,0.00,meteohub,2013-08-28 14:02:00,
2013-08-28 10:07:00,82.2,71.4,29.85,SE,139,1.0,4.0,70,0.00,,,0.00,meteohub,2013-08-28 14:07:00,
2013-08-28 10:12:00,82.4,71.6,29.85,ESE,118,2.0,4.0,70,0.00,,,0.00,meteohub,2013-08-28 14:12:00,
2013-08-28 10:17:00,82.2,71.1,29.85,SE,130,1.0,4.0,69,0.00,,,0.00,meteohub,2013-08-28 14:17:00,
2013-08-28 10:22:00,82.4,71.2,29.85,ESE,105,1.0,5.0,69,0.00,,,0.00,meteohub,2013-08-28 14:22:00,
2013-08-28 10:27:00,82.8,72.0,29.85,ESE,105,1.0,5.0,70,0.00,,,0.00,meteohub,2013-08-28 14:27:00,
2013-08-28 10:32:00,83.1,71.4,29.85,SSE,165,3.0,5.0,68,0.00,,,0.00,meteohub,2013-08-28 14:32:00,
2013-08-28 10:37:00,83.1,71.4,29.85,SE,143,0.0,5.0,68,0.00,,,0.00,meteohub,2013-08-28 14:37:00,
2013-08-28 10:42:00,83.5,71.8,29.85,SSW,197,2.0,5.0,68,0.00,,,0.00,meteohub,2013-08-28 14:42:00,
2013-08-28 10:47:00,83.5,71.8,29.85,East,92,2.0,5.0,68,0.00,,,0.00,meteohub,2013-08-28 14:47:00,
2013-08-28 10:52:00,83.5,71.8,29.85,SE,129,0.0,5.0,68,0.00,,,0.00,meteohub,2013-08-28 14:52:00,
2013-08-28 10:57:00,84.0,72.0,29.85,East,88,3.0,5.0,67,0.00,,,0.00,meteohub,2013-08-28 14:57:00,
2013-08-28 11:02:00,84.0,72.0,29.85,East,94,2.0,5.0,67,0.00,,,0.00,meteohub,2013-08-28 15:02:00,
2013-08-28 11:07:00,84.2,72.0,29.85,ESE,120,0.0,5.0,67,0.00,,,0.00,meteohub,2013-08-28 15:07:00,
2013-08-28 11:12:00,84.4,71.8,29.85,ENE,70,1.0,5.0,66,0.00,,,0.00,meteohub,2013-08-28 15:12:00,
2013-08-28 11:17:00,84.0,71.4,29.86,ESE,123,1.0,5.0,66,0.00,,,0.00,meteohub,2013-08-28 15:17:00,
2013-08-28 11:22:00,83.8,71.2,29.85,SE,136,4.0,5.0,66,0.00,,,0.00,meteohub,2013-08-28 15:22:00,
2013-08-28 11:27:00,83.7,71.6,29.85,East,93,5.0,5.0,67,0.00,,,0.00,meteohub,2013-08-28 15:27:00,
2013-08-28 11:32:00,83.7,71.6,29.85,SE,124,2.0,5.0,67,0.00,,,0.00,meteohub,2013-08-28 15:32:00,
2013-08-28 11:37:00,83.5,71.4,29.85,SE,128,3.0,7.0,67,0.00,,,0.00,meteohub,2013-08-28 15:37:00,
2013-08-28 11:42:00,83.7,71.6,29.85,SE,143,1.0,7.0,67,0.00,,,0.00,meteohub,2013-08-28 15:42:00,
2013-08-28 11:47:00,83.5,70.9,29.85,South,190,2.0,7.0,66,0.00,,,0.00,meteohub,2013-08-28 15:47:00,
2013-08-28 11:52:00,83.1,71.1,29.85,SSE,167,2.0,7.0,67,0.00,,,0.00,meteohub,2013-08-28 15:52:00,
2013-08-28 11:57:00,82.9,70.9,29.84,SE,146,1.0,7.0,67,0.00,,,0.00,meteohub,2013-08-28 15:57:00,
2013-08-28 12:02:00,82.8,71.1,29.84,SSE,162,3.0,6.0,68,0.00,,,0.00,meteohub,2013-08-28 16:02:00,
2013-08-28 12:07:00,82.6,70.9,29.85,South,191,3.0,6.0,68,0.00,,,0.00,meteohub,2013-08-28 16:07:00,
2013-08-28 12:12:00,82.0,70.0,29.85,South,174,2.0,6.0,67,0.00,,,0.00,meteohub,2013-08-28 16:12:00,
2013-08-28 12:17:00,81.7,70.5,29.84,SSE,156,2.0,6.0,69,0.00,,,0.00,meteohub,2013-08-28 16:17:00,
2013-08-28 12:22:00,81.3,70.5,29.84,South,177,2.0,6.0,70,0.00,,,0.00,meteohub,2013-08-28 16:22:00,
2013-08-28 12:27:00,81.0,70.7,29.84,ESE,116,2.0,6.0,71,0.00,,,0.00,meteohub,2013-08-28 16:27:00,
2013-08-28 12:32:00,80.4,70.5,29.83,ESE,102,1.0,6.0,72,0.00,,,0.00,meteohub,2013-08-28 16:32:00,
2013-08-28 12:37:00,80.2,70.3,29.84,ENE,65,2.0,7.0,72,0.00,,,0.00,meteohub,2013-08-28 16:37:00,
2013-08-28 12:42:00,79.9,70.5,29.84,SE,131,1.0,7.0,73,0.00,,,0.00,meteohub,2013-08-28 16:42:00,
2013-08-28 12:47:00,79.3,70.0,29.84,SSW,204,4.0,7.0,73,0.00,,,0.00,meteohub,2013-08-28 16:47:00,
2013-08-28 12:52:00,79.2,70.2,29.84,South,188,2.0,7.0,74,0.00,,,0.00,meteohub,2013-08-28 16:52:00,
2013-08-28 12:58:00,79.0,70.0,29.83,SE,131,1.0,7.0,74,0.00,,,0.00,meteohub,2013-08-28 16:58:00,
2013-08-28 13:03:00,78.8,70.2,29.84,SSE,162,1.0,7.0,75,0.00,,,0.00,meteohub,2013-08-28 17:03:00,
2013-08-28 13:08:00,78.6,70.0,29.83,East,101,3.0,7.0,75,0.00,,,0.00,meteohub,2013-08-28 17:08:00,
2013-08-28 13:14:00,78.6,70.0,29.83,East,93,1.0,7.0,75,0.00,,,0.00,meteohub,2013-08-28 17:14:00,
2013-08-28 13:19:00,78.6,70.9,29.83,SE,130,1.0,7.0,77,0.00,,,0.00,meteohub,2013-08-28 17:19:00,
2013-08-28 13:24:00,78.4,70.7,29.83,ESE,110,1.0,7.0,77,0.00,,,0.00,meteohub,2013-08-28 17:24:00,
2013-08-28 13:29:00,78.1,70.3,29.83,South,190,3.0,7.0,77,0.00,,,0.00,meteohub,2013-08-28 17:29:00,
2013-08-28 13:35:00,78.1,70.3,29.84,ESE,109,0.0,7.0,77,0.00,,,0.00,meteohub,2013-08-28 17:35:00,
2013-08-28 13:40:00,78.1,70.3,29.85,SE,134,0.0,3.0,77,0.00,,,0.00,meteohub,2013-08-28 17:40:00,
2013-08-28 13:45:00,78.1,70.0,29.85,ESE,107,0.0,3.0,76,0.00,,,0.00,meteohub,2013-08-28 17:45:00,
2013-08-28 13:50:00,78.3,70.5,29.84,ESE,112,1.0,3.0,77,0.00,,,0.00,meteohub,2013-08-28 17:50:00,
2013-08-28 13:56:00,78.1,70.7,29.84,SSW,195,2.0,3.0,78,0.00,,,0.00,meteohub,2013-08-28 17:56:00,
2013-08-28 14:01:00,77.7,70.0,29.84,South,174,0.0,3.0,77,0.00,,,0.00,meteohub,2013-08-28 18:01:00,
2013-08-28 14:06:00,77.5,70.2,29.84,ESE,119,0.0,3.0,78,0.00,,,0.00,meteohub,2013-08-28 18:06:00,
2013-08-28 14:11:00,77.5,70.5,29.84,SE,137,0.0,3.0,79,0.00,,,0.00,meteohub,2013-08-28 18:11:00,
2013-08-28 14:17:00,77.5,70.9,29.84,East,94,0.0,3.0,80,0.00,,,0.00,meteohub,2013-08-28 18:17:00,
2013-08-28 14:22:00,77.4,70.7,29.84,ESE,111,2.0,3.0,80,0.00,,,0.00,meteohub,2013-08-28 18:22:00,
2013-08-28 14:27:00,77.4,71.4,29.84,ESE,109,1.0,3.0,82,0.00,,,0.00,meteohub,2013-08-28 18:27:00,
2013-08-28 14:32:00,77.2,71.6,29.84,East,92,2.0,3.0,83,0.00,,,0.00,meteohub,2013-08-28 18:32:00,
2013-08-28 14:37:00,77.2,71.6,29.84,East,86,2.0,3.0,83,0.00,,,0.00,meteohub,2013-08-28 18:37:00,
2013-08-28 14:42:00,77.2,72.0,29.84,East,91,0.0,3.0,84,0.00,,,0.00,meteohub,2013-08-28 18:42:00,
2013-08-28 14:47:00,77.2,71.6,29.84,East,96,1.0,3.0,83,0.00,,,0.00,meteohub,2013-08-28 18:47:00,
2013-08-28 14:52:00,77.2,71.6,29.84,East,97,0.0,3.0,83,0.00,,,0.00,meteohub,2013-08-28 18:52:00,
2013-08-28 14:57:00,77.4,71.8,29.84,SE,145,0.0,3.0,83,0.00,,,0.00,meteohub,2013-08-28 18:57:00,
2013-08-28 15:02:00,77.5,71.6,29.84,SE,128,0.0,3.0,82,0.00,,,0.00,meteohub,2013-08-28 19:02:00,
2013-08-28 15:07:00,77.5,71.6,29.84,SE,127,0.0,3.0,82,0.00,,,0.00,meteohub,2013-08-28 19:07:00,
2013-08-28 15:12:00,77.7,71.4,29.84,SE,125,0.0,3.0,81,0.00,,,0.00,meteohub,2013-08-28 19:12:00,
2013-08-28 15:17:00,77.5,71.2,29.84,East,99,0.0,3.0,81,0.00,,,0.00,meteohub,2013-08-28 19:17:00,
2013-08-28 15:22:00,77.5,71.6,29.84,East,100,1.0,2.0,82,0.00,,,0.00,meteohub,2013-08-28 19:22:00,
2013-08-28 15:27:00,77.5,71.2,29.83,ESE,114,0.0,2.0,81,0.00,,,0.00,meteohub,2013-08-28 19:27:00,
2013-08-28 15:32:00,77.5,71.6,29.83,East,100,0.0,1.0,82,0.00,,,0.00,meteohub,2013-08-28 19:32:00,
2013-08-28 15:37:00,77.5,71.6,29.83,East,101,0.0,1.0,82,0.00,,,0.00,meteohub,2013-08-28 19:37:00,
2013-08-28 15:42:00,77.5,72.0,29.83,ESE,123,0.0,1.0,83,0.00,,,0.00,meteohub,2013-08-28 19:42:00,
2013-08-28 15:47:00,77.5,72.0,29.83,SE,129,0.0,1.0,83,0.00,,,0.00,meteohub,2013-08-28 19:47:00,
2013-08-28 15:52:00,77.5,71.6,29.83,SE,128,0.0,0.0,82,0.00,,,0.00,meteohub,2013-08-28 19:52:00,
2013-08-28 15:57:00,77.5,71.6,29.83,SE,129,0.0,0.0,82,0.00,,,0.00,meteohub,2013-08-28 19:57:00,
2013-08-28 16:02:00,77.9,72.3,29.83,SE,125,0.0,0.0,83,0.00,,,0.00,meteohub,2013-08-28 20:02:00,
2013-08-28 16:07:00,78.1,72.9,29.83,SE,126,0.0,0.0,84,0.00,,,0.00,meteohub,2013-08-28 20:07:00,
2013-08-28 16:12:00,78.3,72.7,29.83,SE,125,0.0,0.0,83,0.00,,,0.00,meteohub,2013-08-28 20:12:00,
2013-08-28 16:17:00,78.3,72.3,29.83,SE,125,0.0,0.0,82,0.00,,,0.00,meteohub,2013-08-28 20:17:00,
2013-08-28 16:22:00,78.4,72.9,29.83,SE,125,0.0,0.0,83,0.00,,,0.00,meteohub,2013-08-28 20:22:00,
2013-08-28 16:27:00,78.6,73.0,29.83,ESE,122,0.0,0.0,83,0.00,,,0.00,meteohub,2013-08-28 20:27:00,
2013-08-28 16:32:00,78.6,72.0,29.83,East,98,0.0,0.0,80,0.00,,,0.00,meteohub,2013-08-28 20:32:00,
2013-08-28 16:37:00,79.0,72.0,29.83,East,98,0.0,0.0,79,0.00,,,0.00,meteohub,2013-08-28 20:37:00,
2013-08-28 16:42:00,79.2,72.1,29.83,East,86,0.0,0.0,79,0.00,,,0.00,meteohub,2013-08-28 20:42:00,
2013-08-28 16:47:00,79.3,72.0,29.83,ENE,75,0.0,0.0,78,0.00,,,0.00,meteohub,2013-08-28 20:47:00,
2013-08-28 16:52:00,79.5,72.1,29.82,ENE,76,0.0,0.0,78,0.00,,,0.00,meteohub,2013-08-28 20:52:00,
2013-08-28 16:57:00,79.7,71.8,29.82,SE,132,0.0,0.0,77,0.00,,,0.00,meteohub,2013-08-28 20:57:00,
2013-08-28 17:02:00,79.9,72.0,29.82,ENE,69,0.0,0.0,77,0.00,,,0.00,meteohub,2013-08-28 21:02:00,
2013-08-28 17:07:00,80.1,71.8,29.82,SSE,166,0.0,0.0,76,0.00,,,0.00,meteohub,2013-08-28 21:07:00,
2013-08-28 17:12:00,80.1,71.8,29.82,SSE,166,0.0,0.0,76,0.00,,,0.00,meteohub,2013-08-28 21:12:00,
2013-08-28 17:17:00,80.4,72.1,29.82,SE,142,0.0,0.0,76,0.00,,,0.00,meteohub,2013-08-28 21:17:00,
2013-08-28 17:22:00,80.4,72.1,29.82,ESE,113,1.0,2.0,76,0.00,,,0.00,meteohub,2013-08-28 21:22:00,
2013-08-28 17:27:00,80.2,72.0,29.82,SSE,148,0.0,2.0,76,0.00,,,0.00,meteohub,2013-08-28 21:27:00,
2013-08-28 17:32:00,80.1,72.5,29.82,North,355,2.0,2.0,78,0.00,,,0.00,meteohub,2013-08-28 21:32:00,
2013-08-28 17:37:00,80.1,72.1,29.82,ENE,65,0.0,2.0,77,0.00,,,0.00,meteohub,2013-08-28 21:37:00,
2013-08-28 17:42:00,80.2,72.3,29.82,ENE,66,0.0,2.0,77,0.00,,,0.00,meteohub,2013-08-28 21:42:00,
2013-08-28 17:47:00,80.2,72.3,29.83,ENE,76,0.0,2.0,77,0.00,,,0.00,meteohub,2013-08-28 21:47:00,
2013-08-28 17:52:00,80.2,72.0,29.82,ENE,76,0.0,2.0,76,0.00,,,0.00,meteohub,2013-08-28 21:52:00,
2013-08-28 17:57:00,80.1,72.1,29.83,ENE,76,0.0,2.0,77,0.00,,,0.00,meteohub,2013-08-28 21:57:00,
2013-08-28 18:02:00,80.1,72.1,29.83,ENE,76,0.0,1.0,77,0.00,,,0.00,meteohub,2013-08-28 22:02:00,
2013-08-28 18:07:00,80.1,72.1,29.83,WSW,242,0.0,1.0,77,0.00,,,0.00,meteohub,2013-08-28 22:07:00,
2013-08-28 18:12:00,79.9,72.3,29.82,WSW,237,0.0,1.0,78,0.00,,,0.00,meteohub,2013-08-28 22:12:00,
2013-08-28 18:17:00,79.9,72.3,29.83,WSW,238,0.0,1.0,78,0.00,,,0.00,meteohub,2013-08-28 22:17:00,
2013-08-28 18:22:00,79.9,72.3,29.83,SW,229,2.0,2.0,78,0.00,,,0.00,meteohub,2013-08-28 22:22:00,
2013-08-28 18:27:00,79.5,72.5,29.83,SW,229,0.0,2.0,79,0.00,,,0.00,meteohub,2013-08-28 22:27:00,
2013-08-28 18:32:00,79.3,72.3,29.83,SW,236,1.0,2.0,79,0.00,,,0.00,meteohub,2013-08-28 22:32:00,
2013-08-28 18:37:00,79.2,72.1,29.82,SW,235,0.0,2.0,79,0.00,,,0.00,meteohub,2013-08-28 22:37:00,
2013-08-28 18:42:00,79.2,72.5,29.83,SW,235,0.0,2.0,80,0.00,,,0.00,meteohub,2013-08-28 22:42:00,
2013-08-28 18:47:00,79.3,72.3,29.83,SW,235,0.0,2.0,79,0.00,,,0.00,meteohub,2013-08-28 22:47:00,
2013-08-28 18:52:00,79.3,72.3,29.83,SW,235,0.0,2.0,79,0.00,,,0.00,meteohub,2013-08-28 22:52:00,
2013-08-28 18:57:00,79.2,72.1,29.83,SW,235,0.0,2.0,79,0.00,,,0.00,meteohub,2013-08-28 22:57:00,
2013-08-28 19:03:00,79.0,72.0,29.83,SW,235,0.0,2.0,79,0.00,,,0.00,meteohub,2013-08-28 23:03:00,
2013-08-28 19:08:00,78.8,71.8,29.83,SW,232,0.0,2.0,79,0.00,,,0.00,meteohub,2013-08-28 23:08:00,
2013-08-28 19:13:00,78.6,72.0,29.83,SW,233,0.0,0.0,80,0.00,,,0.00,meteohub,2013-08-28 23:13:00,
2013-08-28 19:18:00,78.6,72.0,29.83,SW,232,0.0,0.0,80,0.00,,,0.00,meteohub,2013-08-28 23:18:00,
2013-08-28 19:23:00,78.6,72.0,29.83,SW,233,0.0,0.0,80,0.00,,,0.00,meteohub,2013-08-28 23:23:00,
2013-08-28 19:29:00,78.6,72.0,29.83,SW,233,0.0,0.0,80,0.00,,,0.00,meteohub,2013-08-28 23:29:00,
2013-08-28 19:34:00,78.4,71.8,29.83,SW,233,0.0,0.0,80,0.00,,,0.00,meteohub,2013-08-28 23:34:00,
2013-08-28 19:39:00,78.4,72.1,29.83,SW,232,0.0,0.0,81,0.00,,,0.00,meteohub,2013-08-28 23:39:00,
2013-08-28 19:44:00,78.4,72.1,29.83,SW,233,0.0,0.0,81,0.00,,,0.00,meteohub,2013-08-28 23:44:00,
2013-08-28 19:50:00,78.4,72.1,29.83,SW,233,0.0,0.0,81,0.00,,,0.00,meteohub,2013-08-28 23:50:00,
2013-08-28 19:55:00,78.4,72.1,29.83,SW,232,0.0,0.0,81,0.00,,,0.00,meteohub,2013-08-28 23:55:00,
2013-08-28 20:00:00,78.3,72.0,29.83,SW,232,0.0,0.0,81,0.00,,,0.00,meteohub,2013-08-29 00:00:00,
2013-08-28 20:05:00,78.3,72.0,29.83,SW,233,0.0,0.0,81,0.00,,,0.00,meteohub,2013-08-29 00:05:00,
2013-08-28 20:11:00,78.1,71.8,29.83,SW,222,0.0,0.0,81,0.00,,,0.00,meteohub,2013-08-29 00:11:00,
2013-08-28 20:16:00,78.1,71.8,29.83,SW,224,0.0,2.0,81,0.00,,,0.00,meteohub,2013-08-29 00:16:00,
2013-08-28 20:21:00,77.9,71.2,29.83,SW,215,0.0,2.0,80,0.00,,,0.00,meteohub,2013-08-29 00:21:00,
2013-08-28 20:26:00,77.9,71.6,29.83,SW,215,0.0,2.0,81,0.00,,,0.00,meteohub,2013-08-29 00:26:00,
2013-08-28 20:31:00,77.9,71.6,29.84,WSW,240,0.0,1.0,81,0.00,,,0.00,meteohub,2013-08-29 00:31:00,
2013-08-28 20:37:00,78.1,71.8,29.84,WSW,240,0.0,1.0,81,0.00,,,0.00,meteohub,2013-08-29 00:37:00,
2013-08-28 20:42:00,78.1,71.8,29.84,WSW,240,0.0,1.0,81,0.00,,,0.00,meteohub,2013-08-29 00:42:00,
2013-08-28 20:47:00,77.9,71.6,29.84,SW,226,0.0,1.0,81,0.00,,,0.00,meteohub,2013-08-29 00:47:00,
2013-08-28 20:52:00,77.9,71.6,29.84,SW,226,0.0,1.0,81,0.00,,,0.00,meteohub,2013-08-29 00:52:00,
2013-08-28 20:57:00,77.7,71.4,29.84,SW,235,2.0,2.0,81,0.00,,,0.00,meteohub,2013-08-29 00:57:00,
2013-08-28 21:02:00,77.7,71.4,29.85,WSW,245,0.0,3.0,81,0.00,,,0.00,meteohub,2013-08-29 01:02:00,
2013-08-28 21:07:00,77.7,71.1,29.85,WSW,240,0.0,3.0,80,0.00,,,0.00,meteohub,2013-08-29 01:07:00,
2013-08-28 21:12:00,77.7,71.1,29.85,WSW,245,0.0,3.0,80,0.00,,,0.00,meteohub,2013-08-29 01:12:00,
2013-08-28 21:17:00,77.7,71.1,29.85,WSW,245,0.0,3.0,80,0.00,,,0.00,meteohub,2013-08-29 01:17:00,
2013-08-28 21:22:00,77.7,71.1,29.85,SW,226,0.0,2.0,80,0.00,,,0.00,meteohub,2013-08-29 01:22:00,
2013-08-28 21:27:00,77.7,71.1,29.86,SW,226,0.0,2.0,80,0.00,,,0.00,meteohub,2013-08-29 01:27:00,
2013-08-28 21:32:00,77.7,71.1,29.86,SW,226,0.0,1.0,80,0.00,,,0.00,meteohub,2013-08-29 01:32:00,
2013-08-28 21:37:00,77.7,71.4,29.86,SW,236,0.0,1.0,81,0.00,,,0.00,meteohub,2013-08-29 01:37:00,
2013-08-28 21:42:00,77.7,71.4,29.86,SW,236,0.0,1.0,81,0.00,,,0.00,meteohub,2013-08-29 01:42:00,
2013-08-28 21:47:00,77.5,71.6,29.86,SW,235,0.0,1.0,82,0.00,,,0.00,meteohub,2013-08-29 01:47:00,
2013-08-28 21:52:00,77.4,71.8,29.86,SW,235,0.0,0.0,83,0.00,,,0.00,meteohub,2013-08-29 01:52:00,
2013-08-28 21:57:00,77.2,71.6,29.87,ENE,59,0.0,0.0,83,0.00,,,0.00,meteohub,2013-08-29 01:57:00,
2013-08-28 22:02:00,76.8,71.2,29.87,East,98,0.0,0.0,83,0.00,,,0.00,meteohub,2013-08-29 02:02:00,
2013-08-28 22:07:00,76.8,71.6,29.87,South,179,0.0,0.0,84,0.00,,,0.00,meteohub,2013-08-29 02:07:00,
2013-08-28 22:12:00,76.6,71.4,29.86,South,179,0.0,0.0,84,0.00,,,0.00,meteohub,2013-08-29 02:12:00,
2013-08-28 22:17:00,76.6,71.4,29.86,South,179,0.0,0.0,84,0.00,,,0.00,meteohub,2013-08-29 02:17:00,
2013-08-28 22:22:00,76.6,71.4,29.86,South,179,0.0,1.0,84,0.00,,,0.00,meteohub,2013-08-29 02:22:00,
2013-08-28 22:27:00,76.5,71.2,29.87,South,180,0.0,1.0,84,0.00,,,0.00,meteohub,2013-08-29 02:27:00,
2013-08-28 22:32:00,76.5,71.2,29.87,South,186,0.0,0.0,84,0.00,,,0.00,meteohub,2013-08-29 02:32:00,
2013-08-28 22:37:00,76.5,71.2,29.86,South,186,0.0,0.0,84,0.00,,,0.00,meteohub,2013-08-29 02:37:00,
2013-08-28 22:42:00,76.3,71.1,29.86,South,184,0.0,0.0,84,0.00,,,0.00,meteohub,2013-08-29 02:42:00,
2013-08-28 22:47:00,76.3,71.1,29.87,South,184,0.0,0.0,84,0.00,,,0.00,meteohub,2013-08-29 02:47:00,
2013-08-28 22:52:00,76.3,71.1,29.87,South,184,0.0,0.0,84,0.00,,,0.00,meteohub,2013-08-29 02:52:00,
2013-08-28 22:57:00,76.1,70.9,29.86,South,184,0.0,0.0,84,0.00,,,0.00,meteohub,2013-08-29 02:57:00,
2013-08-28 23:02:00,76.1,70.9,29.86,SSE,166,0.0,0.0,84,0.00,,,0.00,meteohub,2013-08-29 03:02:00,
2013-08-28 23:07:00,75.9,70.7,29.86,SSE,165,0.0,0.0,84,0.00,,,0.00,meteohub,2013-08-29 03:07:00,
2013-08-28 23:12:00,75.9,70.7,29.86,SSE,165,0.0,0.0,84,0.00,,,0.00,meteohub,2013-08-29 03:12:00,
2013-08-28 23:17:00,75.9,70.7,29.86,SSE,163,0.0,0.0,84,0.00,,,0.00,meteohub,2013-08-29 03:17:00,
2013-08-28 23:22:00,75.9,71.8,29.86,SSE,163,0.0,0.0,87,0.00,,,0.00,meteohub,2013-08-29 03:22:00,
2013-08-28 23:27:00,75.7,72.0,29.86,SSE,165,0.0,0.0,88,0.00,,,0.00,meteohub,2013-08-29 03:27:00,
2013-08-28 23:32:00,75.6,71.8,29.86,SSE,164,0.0,0.0,88,0.00,,,0.00,meteohub,2013-08-29 03:32:00,
2013-08-28 23:37:00,75.4,71.6,29.86,SSE,163,0.0,0.0,88,0.00,,,0.00,meteohub,2013-08-29 03:37:00,
2013-08-28 23:42:00,75.2,71.4,29.86,SSE,163,0.0,0.0,88,0.00,,,0.00,meteohub,2013-08-29 03:42:00,
2013-08-28 23:47:00,75.0,71.2,29.86,SSE,163,0.0,0.0,88,0.00,,,0.00,meteohub,2013-08-29 03:47:00,
2013-08-28 23:52:00,74.8,71.1,29.86,SSE,163,0.0,0.0,88,0.00,,,0.00,meteohub,2013-08-29 03:52:00,
2013-08-28 23:57:00,74.8,70.7,29.86,SSE,163,0.0,0.0,87,0.00,,,0.00,meteohub,2013-08-29 03:57:00,